Home   Weather   Bunbury   Past weeks

Flag for Australia Past Weather in Bunbury, Western Australia, Australia — Yesterday and Last 2 Weeks

Now
58 °F

Cool.


Feels Like: 56 °F
Forecast: 51 / 59 °F
Wind: 13 mph from West

Location: Bunbury

Current Time: Sep 26, 2016 at 6:40:57 PM

Latest Report: Sep 26, 2016 at 6:00 PM


Visibility: N/A

Pressure: 30.03 "Hg

Humidity: 77%

Dew Point: 51 °F

Location of BunburyLocation

Past Weather in Bunbury — Graph

°F

Bunbury Temperature Yesterday

Maximum temperature yesterday: 61 °F (at 2:00 PM)
Minimum temperature yesterday: 42 °F (at 11:00 PM)
Average temperature yesterday: 53 °F

High & Low Weather Summary for the Past Weeks

 TemperatureHumidityPressure
High65 °F (Sep 21, 12:00 PM)96% (Sep 22, 3:00 AM)30.45 "Hg (Sep 22, 3:00 AM)
Low33 °F (Sep 17, 6:00 AM)41% (Sep 25, 3:00 PM)29.74 "Hg (Sep 18, 6:00 PM)
Average52 °F73%30.11 "Hg
* Reported Sep 11 5:00 PM — Sep 26 5:00 PM, Bunbury, Weather by CustomWeather, © 2016

Note: Actual official high and low records may vary slightly from our data, if they occured in-between our weather recording intervals... More about our weather records

Advertising

Bunbury Weather History for the Previous 24 Hours

Scroll right to see more
 ConditionsComfort  
Time TempWeatherWind HumidityBarometerVisibility
5:00 PM
Mon, Sep 26
62 °FCool.10 mph72%30.03 "HgN/A
3:00 PM62 °FCool.13 mph72%30.03 "HgN/A
2:00 PM63 °FMild.14 mph71%30.04 "HgN/A
12:00 PM61 °FCool.13 mph72%30.06 "HgN/A
11:00 AM60 °FCool.13 mph74%30.08 "HgN/A
9:00 AM58 °FCool.10 mph72%30.09 "HgN/A
8:00 AM57 °FCool.12 mph72%30.08 "HgN/A
6:00 AM57 °FCool.12 mph65%30.07 "HgN/A
5:00 AM56 °FCool.10 mph63%30.07 "HgN/A
3:00 AM54 °FCool.8 mph68%30.08 "HgN/A
2:00 AM44 °FQuite cool.No wind91%30.10 "HgN/A
12:00 AM42 °FQuite cool.1 mph89%30.12 "HgN/A
11:00 PM
Sun, Sep 25
42 °FQuite cool.3 mph85%30.14 "HgN/A
9:00 PM48 °FCool.1 mph75%30.15 "HgN/A
8:00 PM51 °FCool.5 mph71%30.16 "HgN/A
6:00 PM55 °FCool.10 mph60%30.12 "HgN/A
Weather by CustomWeather, © 2016

See weather overviewHow to use our weather pages